OH6LSL Weather Reports


Display with metric or nautical units.
time (UTC)temp
F
wind
direction
speed
MPH
gust
MPH
rain 1hr
in
rain 24hr
in
rain mn
in
humidity
%
barometer
mb
20260508092431 53 232 0.0 6.0 0.00 0.00 0.00 28 1023.5
20260508091452 52 234 1.0 5.0 0.00 0.00 0.00 28 1023.5
20260508090441 52 239 1.0 10.0 0.00 0.00 0.00 29 1023.5
20260508085440 52 220 1.0 6.0 0.00 0.00 0.00 32 1023.4
20260508084439 51 237 0.0 6.0 0.00 0.00 0.00 35 1023.3
20260508083436 52 128 0.0 7.0 0.00 0.00 0.00 35 1023.3
20260508082434 51 229 1.0 5.0 0.00 0.00 0.00 36 1023.1
20260508081436 50 223 0.0 7.0 0.00 0.00 0.00 40 1023.1
20260508080447 50 141 0.0 7.0 0.00 0.00 0.00 43 1023.1
20260508075509 50 186 0.0 3.0 0.00 0.00 0.00 42 1023.0
20260508074447 50 178 0.0 1.0 0.00 0.00 0.00 45 1022.8
20260508073440 49 162 0.0 5.0 0.00 0.00 0.00 45 1022.8
20260508072441 49 202 0.0 3.0 0.00 0.00 0.00 48 1022.7
20260508071458 48 193 0.0 2.0 0.00 0.00 0.00 47 1022.6
20260508070450 47 176 0.0 2.0 0.00 0.00 0.00 49 1022.6
20260508065451 47 203 0.0 1.0 0.00 0.00 0.00 49 1022.4
20260508064451 46 205 0.0 4.0 0.00 0.00 0.00 46 1022.2
20260508063442 46 251 0.0 0.0 0.00 0.00 0.00 39 1022.2
20260508062442 46 251 0.0 0.0 0.00 0.00 0.00 34 1022.1
20260508061443 45 251 0.0 2.0 0.00 0.00 0.00 28 1021.8
20260508060434 44 251 0.0 0.0 0.00 0.00 0.00 24 1021.8
20260508055435 44 251 0.0 0.0 0.00 0.00 0.00 15 1021.7
20260508054436 43 251 1.0 2.0 0.00 0.00 0.00 8 1021.5
20260508053446 43 251 0.0 0.0 0.00 0.00 0.00 12 1021.5
20260508052444 42 251 0.0 0.0 0.00 0.00 0.00 12 1021.2
20260508051504 42 251 0.0 0.0 0.00 0.00 0.00 14 1021.1
20260508050431 41 251 0.0 0.0 0.00 0.00 0.00 16 1021.1
20260508045433 40 251 0.0 1.0 0.00 0.00 0.00 16 1021.0
20260508044432 40 251 0.0 1.0 0.00 0.00 0.00 17 1020.9
20260508043458 39 251 0.0 0.0 0.00 0.00 0.00 18 1020.9
20260508042437 38 251 0.0 0.0 0.00 0.00 0.00 19 1020.7
20260508041438 37 251 0.0 0.0 0.00 0.00 0.00 20 1020.5
20260508040449 36 251 0.0 0.0 0.00 0.00 0.00 21 1020.5
20260508035449 35 251 0.0 0.0 0.00 0.00 0.00 22 1020.5
20260508034450 34 251 0.0 0.0 0.00 0.00 0.00 24 1020.3
20260508033437 33 251 0.0 0.0 0.00 0.00 0.00 25 1020.3
20260508032439 32 251 0.0 0.0 0.00 0.00 0.00 25 1020.1
20260508031440 32 251 0.0 0.0 0.00 0.00 0.00 25 1020.0
20260508030450 32 251 0.0 0.0 0.00 0.00 0.00 25 1020.0
20260508025451 33 251 0.0 0.0 0.00 0.00 0.00 25 1019.9
20260508024510 32 251 0.0 0.0 0.00 0.00 0.00 27 1019.7
20260508023438 32 251 0.0 0.0 0.00 0.00 0.00 27 1019.7
20260508022439 31 251 0.0 0.0 0.00 0.00 0.00 29 1019.6
20260508021500 30 251 0.0 0.0 0.00 0.00 0.00 29 1019.5
20260508020512 30 251 0.0 0.0 0.00 0.00 0.00 29 1019.5
20260508015454 30 251 0.0 0.0 0.00 0.00 0.00 30 1019.4
20260508014455 30 251 0.0 0.0 0.00 0.00 0.00 30 1019.1
20260508013443 30 251 0.0 0.0 0.00 0.00 0.00 30 1019.1
20260508012445 31 251 0.0 0.0 0.00 0.00 0.00 29 1019.0
20260508011507 32 251 0.0 0.0 0.00 0.00 0.00 29 1018.9
20260508010446 31 251 0.0 0.0 0.00 0.00 0.00 29 1018.9
20260508005447 32 251 0.0 0.0 0.00 0.00 0.00 29 1018.8
20260508004448 32 251 0.0 0.0 0.00 0.00 0.00 30 1018.7
20260508003437 31 251 0.0 0.0 0.00 0.00 0.00 31 1018.7
20260508002437 32 251 0.0 0.0 0.00 0.00 0.00 31 1018.5
20260508001438 32 251 0.0 0.0 0.00 0.00 0.00 31 1018.4
20260508000450 32 251 0.0 0.0 0.00 0.00 0.00 32 1018.4
20260507235448 32 251 0.0 0.0 0.00 0.00 0.00 32 1018.2
20260507234450 32 251 0.0 0.0 0.00 0.00 0.00 33 1018.0
20260507233444 31 253 0.0 0.0 0.00 0.00 0.00 34 1018.0
20260507232445 31 253 0.0 0.0 0.00 0.00 0.00 35 1017.9
20260507231447 31 253 0.0 0.0 0.00 0.00 0.00 35 1017.8
20260507230433 32 253 0.0 0.0 0.00 0.00 0.00 36 1017.8
20260507225433 31 253 0.0 0.0 0.00 0.00 0.00 36 1017.7
20260507224434 31 253 0.0 0.0 0.00 0.00 0.00 37 1017.5
20260507223504 31 253 0.0 0.0 0.00 0.00 0.00 39 1017.5
20260507222444 31 253 0.0 0.0 0.00 0.00 0.00 40 1017.5
20260507221511 31 253 0.0 0.0 0.00 0.00 0.00 41 1017.4
20260507220442 31 253 0.0 0.0 0.00 0.00 0.00 43 1017.4
20260507215447 31 253 0.0 0.0 0.00 0.00 0.00 44 1017.2
20260507214508 31 253 0.0 0.0 0.00 0.00 0.00 46 1017.0
20260507213438 31 253 0.0 0.0 0.00 0.00 0.00 46 1017.0
20260507212440 31 253 0.0 0.0 0.00 0.00 0.00 47 1016.9
20260507211440 31 253 0.0 0.0 0.00 0.00 0.00 48 1016.8
20260507210450 30 253 0.0 0.0 0.00 0.00 0.00 48 1016.8
20260507205447 31 253 0.0 0.0 0.00 0.00 0.00 49 1016.5
20260507204447 31 253 0.0 0.0 0.00 0.00 0.00 49 1016.4
20260507203436 31 253 0.0 0.0 0.00 0.00 0.00 50 1016.4
20260507202432 32 253 0.0 0.0 0.00 0.00 0.00 52 1016.2
20260507201450 32 253 0.0 0.0 0.00 0.00 0.00 53 1016.1
20260507200444 33 253 0.0 0.0 0.00 0.00 0.00 56 1016.1
20260507195444 33 253 0.0 0.0 0.00 0.00 0.00 55 1015.9
20260507194443 35 253 0.0 0.0 0.00 0.00 0.00 58 1015.9
20260507193435 34 253 0.0 0.0 0.00 0.00 0.00 60 1015.9
20260507192434 35 253 0.0 0.0 0.00 0.00 0.00 61 1015.8
20260507191435 35 253 0.0 0.0 0.00 0.00 0.00 62 1015.6
20260507190446 37 253 0.0 0.0 0.00 0.00 0.00 61 1015.6
20260507185451 37 253 0.0 0.0 0.00 0.00 0.00 63 1015.4
20260507184432 37 253 0.0 0.0 0.00 0.00 0.00 63 1015.4
20260507183441 38 253 0.0 0.0 0.00 0.00 0.00 64 1015.4
20260507182441 39 253 0.0 0.0 0.00 0.00 0.00 63 1015.5
20260507181443 39 253 0.0 0.0 0.00 0.00 0.00 62 1015.3
20260507180433 40 253 0.0 0.0 0.00 0.00 0.00 62 1015.3
20260507175457 40 253 0.0 3.0 0.00 0.00 0.00 62 1015.2
20260507174437 40 254 0.0 2.0 0.00 0.00 0.00 62 1015.1
20260507173507 40 256 0.0 2.0 0.00 0.00 0.00 63 1015.1
20260507172448 40 256 0.0 0.0 0.00 0.00 0.00 65 1015.0
20260507171447 40 257 0.0 3.0 0.00 0.00 0.00 64 1015.0
20260507170456 40 220 0.0 3.0 0.00 0.00 0.00 61 1015.0
20260507165433 41 222 0.0 0.0 0.00 0.00 0.00 60 1014.7
20260507164433 41 222 0.0 2.0 0.00 0.00 0.00 60 1014.6
20260507163446 41 222 0.0 2.0 0.00 0.00 0.00 60 1014.6
20260507162444 41 205 0.0 5.0 0.00 0.00 0.00 61 1014.4
20260507161442 41 251 1.0 6.0 0.00 0.00 0.00 62 1014.3
20260507160433 42 244 1.0 6.0 0.00 0.00 0.00 62 1014.3
20260507155432 42 213 1.0 6.0 0.00 0.00 0.00 58 1014.1
20260507154435 43 222 1.0 8.0 0.00 0.00 0.00 55 1013.8
20260507153446 44 240 1.0 7.0 0.00 0.00 0.00 54 1013.8
20260507152446 45 176 0.0 10.0 0.00 0.00 0.00 52 1013.8
20260507151446 45 292 2.0 7.0 0.00 0.00 0.00 50 1013.6
20260507150438 45 241 0.0 6.0 0.00 0.00 0.00 49 1013.6
20260507145441 44 308 0.0 5.0 0.00 0.00 0.00 52 1013.5
20260507144444 43 360 0.0 5.0 0.00 0.00 0.00 55 1013.5
20260507143433 43 340 1.0 6.0 0.00 0.00 0.00 54 1013.5
20260507142434 43 340 3.0 8.0 0.00 0.00 0.00 54 1013.4
20260507141454 43 360 1.0 7.0 0.00 0.00 0.00 54 1013.4
20260507140505 43 1 3.0 8.0 0.00 0.00 0.00 55 1013.4
20260507135503 43 320 2.0 8.0 0.00 0.00 0.00 54 1013.2
20260507134442 43 312 2.0 11.0 0.00 0.00 0.00 53 1013.2
20260507133435 43 332 3.0 8.0 0.00 0.00 0.00 51 1013.2
20260507132436 43 360 4.0 12.0 0.00 0.00 0.00 59 1013.2
20260507131435 42 357 9.0 14.0 0.00 0.00 0.00 55 1013.1
20260507130445 42 6 4.0 10.0 0.00 0.00 0.00 59 1013.1
20260507125447 42 349 6.0 11.0 0.00 0.00 0.00 62 1013.0
20260507124450 42 7 7.0 14.0 0.00 0.00 0.00 60 1013.0
20260507123501 42 360 6.0 13.0 0.00 0.00 0.00 59 1013.0
20260507122500 43 360 9.0 12.0 0.00 0.00 0.00 59 1012.9
20260507121439 42 328 6.0 13.0 0.00 0.00 0.00 62 1013.2
20260507120449 42 344 5.0 11.0 0.00 0.00 0.00 60 1013.2
20260507115432 42 360 5.0 12.0 0.00 0.00 0.00 60 1013.2
20260507114434 43 346 6.0 13.0 0.00 0.00 0.00 57 1013.1
20260507113448 43 360 4.0 10.0 0.00 0.00 0.00 59 1013.1
20260507112510 42 325 4.0 11.0 0.00 0.00 0.00 60 1013.0
20260507111433 42 352 5.0 11.0 0.00 0.00 0.00 57 1013.0
20260507110441 42 330 7.0 12.0 0.00 0.00 0.00 58 1013.0
20260507105443 42 329 5.0 10.0 0.00 0.00 0.00 60 1013.1
20260507104443 41 329 4.0 10.0 0.00 0.00 0.00 61 1013.2
20260507103433 41 357 3.0 9.0 0.00 0.00 0.00 60 1013.2
20260507102435 42 347 6.0 8.0 0.00 0.00 0.00 62 1013.1
20260507101457 43 360 5.0 7.0 0.00 0.00 0.00 58 1013.2
20260507100444 43 360 2.0 7.0 0.00 0.00 0.00 61 1013.2
20260507095444 43 360 5.0 7.0 0.00 0.00 0.00 61 1013.2
20260507094504 44 360 1.0 6.0 0.00 0.00 0.00 59 1013.4
20260507093434 43 313 4.0 7.0 0.00 0.00 0.00 59 1013.4